2018-111X (43897 NORAD) Tracking and Keplerian Element Data

This shows tracking and keplerian element data for the satellite.

Feedback or suggestion? Click here.




ElementValue
Catalog43897
Name2018-111X
Epoch Orbit316
Epoch Day16.83686156
Epoch Year2019
RAAN286.1726
Inclination97.2996
Eccentricity0.0023267
Argument of Perigee171.4292
Mean Anonmoly188.7348
Mean Motion15.2353858
Decay Rate4.91E-06
L11 43897U 18111X 19016.83686156 .00000491 00000-0 23335-4 0 9997
L22 43897 97.2996 286.1726 0023267 171.4292 188.7348 15.23538580 3162

Live tracking and technical data element details for 2018-111X (NORAD 43897). 2018-111X can be tracked NOW for your location showing map with azimuth and elevation plus other details from your city location.

Track the satellite on the map from your city or location and see movement details for azimuth, elevation, latitude, longitude, range, height, and movement on the map or in text.







IsCatalogInMostPopularTable: catalog: 43897, numindb: 18
Update: records affected: 1



GetName: 43897 2018-111X

Hit Count: updated at: Thu, 17 Jan 2019 15:13:35 GMT